Location: Munkebjergskolens Observatorium
(55.3864°N, 10.3987°E)
Time: 05:27:59
(UTC+02:00)

QB50P2 - Pass Details

Date: 05 April 2023
Orbit: 581 x 596 km, 98.0° (Epoch: 31 May)

Event Time Altitude Azimuth Distance (km) Brightness Sun altitude
Rises 05:29:41 0° 3° (N) 2,840 ? -10.3°
Reaches altitude 10° 05:33:42 10° 324° (NW) 1,927 ? -9.8°
Maximum altitude 05:34:31 11° 313° (NW) 1,891 ? -9.7°
Drops below altitude 10° 05:35:20 10° 301° (WNW) 1,922 ? -9.6°
Enters shadow 05:36:56 - 282° (WNW) 2,160 ? -9.4°
